EW7868 Weather Reports


Display with metric or nautical units.
time (UTC)temp
F
wind
direction
speed
MPH
gust
MPH
rain 1hr
in
rain 24hr
in
rain mn
in
humidity
%
barometer
mb
20260904095538 76 195 1.0 3.0 0.00 0.00 0.00 89 1011.6
20260904095033 76 188 0.0 3.0 0.00 0.00 0.00 89 1011.7
20260904094528 76 186 0.0 1.0 0.00 0.00 0.00 89 1011.5
20260904094023 76 203 0.0 2.0 0.00 0.00 0.00 90 1011.6
20260904093520 76 194 0.0 1.0 0.00 0.00 0.00 90 1011.8
20260904093015 76 203 1.0 2.0 0.00 0.00 0.00 91 1011.6
20260904092510 76 203 0.0 2.0 0.00 0.00 0.00 91 1011.8
20260904092007 76 195 0.0 0.0 0.00 0.00 0.00 91 1011.9
20260904091503 76 195 0.0 1.0 0.00 0.00 0.00 90 1011.9
20260904091002 76 195 0.0 1.0 0.00 0.00 0.00 90 1011.8
20260904090457 76 187 0.0 1.0 0.00 0.00 0.00 90 1011.8
20260904085952 77 187 0.0 2.0 0.00 0.00 0.00 90 1012.0
20260904085447 77 188 0.0 0.0 0.00 0.00 0.00 90 1011.9
20260904084942 77 203 0.0 1.0 0.00 0.00 0.00 90 1011.7
20260904084438 77 209 0.0 2.0 0.00 0.00 0.00 90 1011.7
20260904083933 77 200 1.0 1.0 0.00 0.00 0.00 90 1011.8
20260904083430 77 194 0.0 2.0 0.00 0.00 0.00 90 1011.6
20260904082925 77 195 0.0 2.0 0.00 0.00 0.00 90 1011.6
20260904082425 77 203 0.0 1.0 0.00 0.00 0.00 90 1011.4
20260904081920 77 196 0.0 3.0 0.00 0.00 0.00 90 1011.3
20260904081416 77 195 0.0 2.0 0.00 0.00 0.00 90 1011.5
20260904080912 77 165 0.0 3.0 0.00 0.00 0.00 90 1011.4
20260904080407 78 195 0.0 2.0 0.00 0.00 0.00 90 1011.1
20260904075903 78 200 0.0 3.0 0.00 0.00 0.00 90 1011.1
20260904075358 78 185 0.0 4.0 0.00 0.00 0.00 89 1011.1
20260904074857 78 208 2.0 3.0 0.00 0.00 0.00 89 1011.1
20260904074352 78 197 2.0 4.0 0.00 0.00 0.00 89 1011.0
20260904073847 78 203 0.0 3.0 0.00 0.00 0.00 89 1011.0
20260904073343 78 214 2.0 2.0 0.00 0.00 0.00 88 1011.1
20260904072838 79 208 2.0 3.0 0.00 0.00 0.00 88 1011.4
20260904072333 79 206 0.0 3.0 0.00 0.00 0.00 87 1011.5
20260904071828 79 207 3.0 5.0 0.00 0.00 0.00 86 1011.4
20260904071324 79 205 3.0 4.0 0.00 0.00 0.00 86 1011.2
20260904070818 79 215 0.0 3.0 0.00 0.00 0.00 87 1011.5
20260904070317 79 199 3.0 3.0 0.00 0.00 0.00 88 1011.5
20260904065812 79 239 0.0 3.0 0.00 0.00 0.00 89 1011.5
20260904065309 79 209 0.0 3.0 0.00 0.00 0.00 89 1011.5
20260904064803 80 209 0.0 4.0 0.00 0.00 0.00 89 1011.7
20260904064259 79 203 3.0 4.0 0.00 0.00 0.00 90 1011.6
20260904063755 80 209 2.0 3.0 0.00 0.00 0.00 90 1011.7
20260904063250 79 209 0.0 4.0 0.00 0.00 0.00 90 1011.9
20260904062746 79 205 3.0 4.0 0.00 0.00 0.00 90 1012.1
20260904062242 80 196 0.0 4.0 0.00 0.00 0.00 90 1011.8
20260904061737 79 198 3.0 4.0 0.00 0.00 0.00 90 1011.9
20260904061233 79 194 3.0 3.0 0.00 0.00 0.00 90 1012.1
20260904060730 80 213 3.0 3.0 0.00 0.00 0.00 90 1012.0
20260904060226 80 199 2.0 3.0 0.00 0.00 0.00 90 1012.1
20260904055721 79 204 2.0 3.0 0.00 0.00 0.00 90 1012.3
20260904055221 79 201 2.0 4.0 0.00 0.00 0.00 90 1012.2
20260904054716 79 208 3.0 4.0 0.00 0.00 0.00 90 1012.3
20260904054213 79 212 3.0 3.0 0.00 0.00 0.00 90 1012.0
20260904053707 79 218 2.0 4.0 0.00 0.00 0.00 90 1012.1
20260904053202 79 210 2.0 3.0 0.00 0.00 0.00 90 1011.9
20260904052658 79 200 3.0 3.0 0.00 0.00 0.00 90 1012.0
20260904052154 79 203 3.0 3.0 0.00 0.00 0.00 90 1012.1
20260904051650 80 5 2.0 3.0 0.00 0.00 0.00 90 1011.9
20260904051145 80 195 2.0 3.0 0.00 0.00 0.00 90 1012.0
20260904050640 80 217 2.0 3.0 0.00 0.00 0.00 89 1011.8
20260904050137 80 194 0.0 3.0 0.00 0.00 0.00 89 1011.8
20260904045636 79 210 0.0 2.0 0.00 0.00 0.00 90 1012.0
20260904045131 79 209 1.0 3.0 0.00 0.00 0.00 90 1011.9
20260904044626 79 221 2.0 3.0 0.00 0.00 0.00 89 1011.9
20260904044123 79 212 0.0 3.0 0.00 0.00 0.00 89 1011.8
20260904043619 80 195 0.0 3.0 0.00 0.00 0.00 89 1012.0
20260904043115 79 208 2.0 3.0 0.00 0.00 0.00 89 1011.9
20260904042611 79 209 0.0 2.0 0.00 0.00 0.00 89 1012.1
20260904042106 79 215 0.0 2.0 0.00 0.00 0.00 89 1012.0
20260904041601 80 203 3.0 3.0 0.00 0.00 0.00 88 1012.0
20260904041057 80 211 0.0 3.0 0.00 0.00 0.00 88 1012.0
20260904040557 80 203 1.0 3.0 0.00 0.00 0.00 87 1012.0
20260904040054 80 198 0.0 2.0 0.00 0.00 0.00 87 1012.1
20260904035549 80 200 0.0 0.0 0.00 0.00 0.00 87 1011.9
20260904035048 80 90 0.0 0.0 0.00 0.00 0.00 87 1012.1
20260904034543 80 200 0.0 0.0 0.00 0.00 0.00 87 1012.2
20260904034039 80 90 0.0 1.0 0.00 0.00 0.00 87 1011.9
20260904033535 80 262 0.0 0.0 0.00 0.00 0.00 87 1012.1
20260904033032 81 99 0.0 0.0 0.00 0.00 0.00 87 1012.2
20260904032528 81 201 0.0 0.0 0.00 0.00 0.00 87 1012.3
20260904032026 81 201 0.0 0.0 0.00 0.00 0.00 87 1012.2
20260904031521 81 201 0.0 0.0 0.00 0.00 0.00 87 1012.1
20260904031017 81 185 2.0 2.0 0.00 0.00 0.00 88 1012.4
20260904030513 81 270 0.0 0.0 0.00 0.00 0.00 89 1012.4
20260904030008 81 270 0.0 0.0 0.00 0.00 0.00 88 1012.4
20260904025504 81 270 0.0 0.0 0.00 0.00 0.00 87 1012.2
20260904025004 81 270 0.0 0.0 0.00 0.00 0.00 87 1012.1
20260904024459 82 270 0.0 0.0 0.00 0.00 0.00 87 1012.2
20260904023955 82 270 0.0 0.0 0.00 0.00 0.00 86 1012.1
20260904023450 82 270 0.0 0.0 0.00 0.00 0.00 85 1012.1
20260904022950 82 270 0.0 2.0 0.00 0.00 0.00 85 1012.1
20260904022446 82 69 0.0 1.0 0.00 0.00 0.00 84 1011.8
20260904021943 83 215 1.0 2.0 0.00 0.00 0.00 84 1011.8
20260904021438 83 195 0.0 0.0 0.00 0.00 0.00 84 1011.6
20260904020933 83 195 0.0 0.0 0.00 0.00 0.00 83 1011.7
20260904020428 84 195 0.0 0.0 0.00 0.00 0.00 83 1011.8
20260904015926 84 195 0.0 1.0 0.00 0.00 0.00 82 1011.6
20260904015422 84 209 0.0 1.0 0.00 0.00 0.00 81 1011.5
20260904014921 84 215 0.0 1.0 0.00 0.00 0.00 81 1011.4
20260904014416 84 209 0.0 2.0 0.00 0.00 0.00 81 1011.4
20260904013912 85 221 0.0 2.0 0.00 0.00 0.00 81 1011.6
20260904013408 85 192 0.0 1.0 0.00 0.00 0.00 80 1011.2
20260904012903 86 180 0.0 2.0 0.00 0.00 0.00 81 1011.0
20260904012357 86 195 0.0 4.0 0.00 0.00 0.00 80 1011.2
20260904011857 86 195 0.0 5.0 0.00 0.00 0.00 80 1010.9
20260904011352 86 194 0.0 3.0 0.00 0.00 0.00 80 1010.7
20260904010847 86 173 1.0 4.0 0.00 0.00 0.00 80 1010.7
20260904010344 86 206 1.0 5.0 0.00 0.00 0.00 80 1010.5
20260904005839 86 206 0.0 3.0 0.00 0.00 0.00 81 1010.6
20260904005334 86 200 0.0 1.0 0.00 0.00 0.00 81 1010.7
20260904004829 86 203 0.0 3.0 0.00 0.00 0.00 80 1010.4
20260904004326 87 201 2.0 2.0 0.00 0.00 0.00 79 1010.6
20260904003821 87 195 0.0 1.0 0.00 0.00 0.00 78 1010.4
20260904003317 87 206 0.0 2.0 0.00 0.00 0.00 77 1010.7
20260904002812 88 203 0.0 1.0 0.00 0.00 0.00 76 1010.6
20260904002308 89 195 0.0 1.0 0.00 0.00 0.00 75 1010.5
20260904001807 89 198 2.0 2.0 0.00 0.00 0.00 73 1010.4
20260904001302 90 187 0.0 0.0 0.00 0.00 0.00 71 1010.5
20260904000757 91 180 0.0 2.0 0.00 0.00 0.00 70 1010.7
20260904000251 92 194 0.0 2.0 0.00 0.00 0.00 69 1010.7
20260903235751 93 180 0.0 0.0 0.00 0.00 0.00 68 1010.8
20260903235247 93 194 1.0 2.0 0.00 0.00 0.00 68 1010.4
20260903234746 94 203 0.0 1.0 0.00 0.00 0.00 66 1010.6
20260903234243 93 199 0.0 3.0 0.00 0.00 0.00 67 1010.7
20260903233739 94 209 0.0 1.0 0.00 0.00 0.00 66 1010.6
20260903233235 94 180 0.0 2.0 0.00 0.00 0.00 66 1010.8
20260903232733 95 198 2.0 2.0 0.00 0.00 0.00 66 1010.6
20260903232230 96 206 0.0 1.0 0.00 0.00 0.00 64 1010.6
20260903231728 95 199 2.0 2.0 0.00 0.00 0.00 64 1010.8
20260903231224 95 195 0.0 3.0 0.00 0.00 0.00 64 1010.8
20260903230719 95 195 1.0 3.0 0.00 0.00 0.00 66 1011.1
20260903230214 95 190 0.0 2.0 0.00 0.00 0.00 65 1010.8
20260903225710 95 194 3.0 4.0 0.00 0.00 0.00 66 1011.1
20260903225207 95 203 0.0 3.0 0.00 0.00 0.00 64 1011.1
20260903224703 95 215 0.0 3.0 0.00 0.00 0.00 63 1011.3
20260903224159 95 187 0.0 3.0 0.00 0.00 0.00 65 1011.5
20260903223659 95 206 1.0 3.0 0.00 0.00 0.00 65 1011.1
20260903223157 97 206 0.0 3.0 0.00 0.00 0.00 63 1011.1
20260903222658 96 186 1.0 3.0 0.00 0.00 0.00 64 1011.2
20260903222156 96 185 0.0 3.0 0.00 0.00 0.00 62 1011.4
20260903221652 95 206 0.0 3.0 0.00 0.00 0.00 62 1011.3
20260903221150 94 191 3.0 4.0 0.00 0.00 0.00 63 1011.2
20260903220649 94 206 2.0 5.0 0.00 0.00 0.00 64 1011.1
20260903220144 92 199 2.0 3.0 0.00 0.00 0.00 68 1011.0
20260903215643 91 203 0.0 3.0 0.00 0.00 0.00 71 1011.0
20260903215138 91 187 0.0 3.0 0.00 0.00 0.00 70 1011.2
20260903214636 92 198 0.0 2.0 0.00 0.00 0.00 70 1011.2
20260903214132 92 198 2.0 3.0 0.00 0.00 0.00 70 1011.3
20260903213627 92 186 0.0 3.0 0.00 0.00 0.00 69 1011.0
20260903213123 92 187 0.0 3.0 0.00 0.00 0.00 68 1011.2
20260903212618 92 180 2.0 3.0 0.00 0.00 0.00 68 1011.3
20260903212114 93 217 2.0 6.0 0.00 0.00 0.00 66 1011.3
20260903211608 94 200 3.0 5.0 0.00 0.00 0.00 63 1011.2
20260903211106 96 201 4.0 8.0 0.00 0.00 0.00 62 1011.4
20260903210600 95 191 3.0 8.0 0.00 0.00 0.00 61 1011.4
20260903210056 95 193 4.0 6.0 0.00 0.00 0.00 61 1011.4
20260903205555 96 208 2.0 5.0 0.00 0.00 0.00 62 1011.4
20260903205050 96 212 2.0 5.0 0.00 0.00 0.00 62 1011.6
20260903204546 96 184 0.0 7.0 0.00 0.00 0.00 62 1011.5
20260903204041 95 187 0.0 6.0 0.00 0.00 0.00 64 1011.8
20260903203537 95 200 4.0 6.0 0.00 0.00 0.00 62 1011.7
20260903203036 96 82 3.0 7.0 0.00 0.00 0.00 63 1011.8
20260903202532 96 81 0.0 2.0 0.00 0.00 0.00 59 1011.7
20260903202027 95 184 2.0 4.0 0.00 0.00 0.00 61 1011.6
20260903201522 95 192 1.0 5.0 0.00 0.00 0.00 61 1011.8
20260903201021 96 186 0.0 4.0 0.00 0.00 0.00 62 1011.6
20260903200516 95 203 0.0 9.0 0.00 0.00 0.00 63 1011.6
20260903200011 95 90 4.0 4.0 0.00 0.00 0.00 62 1011.8
20260903195507 94 108 2.0 3.0 0.00 0.00 0.00 63 1011.5
20260903195003 93 94 2.0 6.0 0.00 0.00 0.00 63 1012.0
20260903194457 94 94 3.0 4.0 0.00 0.00 0.00 64 1011.7
20260903193953 94 98 1.0 3.0 0.00 0.00 0.00 62 1012.1
20260903193449 94 90 0.0 5.0 0.00 0.00 0.00 64 1011.9
20260903192943 95 79 4.0 4.0 0.00 0.00 0.00 62 1012.0
20260903192441 93 59 0.0 5.0 0.00 0.00 0.00 63 1012.2
20260903191935 94 90 0.0 3.0 0.00 0.00 0.00 63 1012.2
20260903191432 94 128 3.0 4.0 0.00 0.00 0.00 62 1012.1
20260903190931 93 81 0.0 2.0 0.00 0.00 0.00 63 1012.3
20260903190431 93 90 4.0 5.0 0.00 0.00 0.00 62 1012.4
20260903185925 94 74 1.0 2.0 0.00 0.00 0.00 62 1012.5
20260903185421 94 99 0.0 3.0 0.00 0.00 0.00 64 1012.5
20260903184915 93 90 0.0 3.0 0.00 0.00 0.00 63 1012.7
20260903184413 93 90 0.0 3.0 0.00 0.00 0.00 64 1012.5
20260903183912 92 90 0.0 7.0 0.00 0.00 0.00 64 1012.6
20260903183407 92 81 0.0 6.0 0.00 0.00 0.00 66 1012.6
20260903182901 92 90 2.0 4.0 0.00 0.00 0.00 65 1012.7
20260903182400 92 63 0.0 7.0 0.00 0.00 0.00 67 1012.7
20260903181855 92 59 3.0 3.0 0.00 0.00 0.00 66 1012.6
20260903181349 92 60 0.0 3.0 0.00 0.00 0.00 68 1012.8
20260903180843 93 87 0.0 4.0 0.00 0.00 0.00 66 1012.8
20260903180343 92 97 0.0 2.0 0.00 0.00 0.00 68 1012.6
20260903175842 92 206 0.0 2.0 0.00 0.00 0.00 69 1012.6
20260903175337 92 63 1.0 3.0 0.00 0.00 0.00 70 1013.0
20260903174831 91 86 0.0 2.0 0.00 0.00 0.00 70 1012.8
20260903174326 92 86 2.0 3.0 0.00 0.00 0.00 69 1012.9
20260903173821 92 57 0.0 5.0 0.00 0.00 0.00 69 1012.8
20260903173317 91 281 0.0 5.0 0.00 0.00 0.00 69 1012.8
20260903172812 92 90 0.0 2.0 0.00 0.00 0.00 68 1013.0
20260903172307 91 283 0.0 2.0 0.00 0.00 0.00 69 1012.9
20260903171802 91 180 0.0 2.0 0.00 0.00 0.00 69 1012.9
20260903171258 91 255 4.0 4.0 0.00 0.00 0.00 70 1013.0
20260903170756 90 85 2.0 4.0 0.00 0.00 0.00 70 1012.9
20260903170251 89 254 0.0 4.0 0.00 0.00 0.00 74 1013.1
20260903165750 89 318 0.0 3.0 0.00 0.00 0.00 72 1013.0
20260903165245 89 294 0.0 5.0 0.00 0.00 0.00 72 1012.7
20260903164739 89 279 0.0 2.0 0.00 0.00 0.00 72 1013.0
20260903164236 89 344 0.0 3.0 0.00 0.00 0.00 70 1013.0
20260903163734 90 196 3.0 5.0 0.00 0.00 0.00 69 1012.5
20260903163231 90 99 0.0 5.0 0.00 0.00 0.00 70 1012.5
20260903162727 90 90 2.0 5.0 0.00 0.00 0.00 70 1012.5
20260903162223 90 257 0.0 5.0 0.00 0.00 0.00 70 1012.4
20260903161719 90 196 4.0 4.0 0.00 0.00 0.00 70 1012.6
20260903161213 89 205 3.0 4.0 0.00 0.00 0.00 71 1012.6
20260903160709 89 190 4.0 4.0 0.00 0.00 0.00 72 1012.7
20260903160202 89 239 2.0 7.0 0.00 0.00 0.00 71 1012.6
20260903155702 89 200 1.0 4.0 0.00 0.00 0.00 72 1012.5
20260903155202 88 199 5.0 6.0 0.00 0.00 0.00 71 1012.5
20260903154657 88 187 3.0 7.0 0.00 0.00 0.00 71 1012.4
20260903154153 88 197 4.0 8.0 0.00 0.00 0.00 72 1012.4
20260903153649 88 201 3.0 8.0 0.00 0.00 0.00 72 1012.5
20260903153145 88 200 4.0 5.0 0.00 0.00 0.00 72 1012.5
20260903152640 88 206 4.0 5.0 0.00 0.00 0.00 73 1012.5
20260903152136 87 210 2.0 6.0 0.00 0.00 0.00 73 1012.6
20260903151636 88 218 3.0 3.0 0.00 0.00 0.00 73 1012.4
20260903151132 87 144 2.0 7.0 0.00 0.00 0.00 73 1012.5
20260903150631 87 199 5.0 7.0 0.00 0.00 0.00 73 1012.4
20260903150126 87 74 0.0 4.0 0.00 0.00 0.00 76 1012.6
20260903145626 86 200 0.0 6.0 0.00 0.00 0.00 75 1012.7
20260903145121 87 204 2.0 4.0 0.00 0.00 0.00 75 1012.5
20260903144619 86 196 0.0 6.0 0.00 0.00 0.00 76 1012.7
20260903144116 86 188 3.0 6.0 0.00 0.00 0.00 76 1012.7
20260903143612 85 243 2.0 6.0 0.00 0.00 0.00 77 1012.6
20260903143108 85 180 3.0 8.0 0.00 0.00 0.00 77 1012.5
20260903142603 85 203 2.0 6.0 0.00 0.00 0.00 77 1012.5
20260903142100 84 113 2.0 6.0 0.00 0.00 0.00 78 1012.5
20260903141555 84 200 5.0 5.0 0.00 0.00 0.00 78 1012.4
20260903141050 84 203 3.0 7.0 0.00 0.00 0.00 78 1012.5
20260903140546 84 194 1.0 7.0 0.00 0.00 0.00 78 1012.2
20260903140041 83 225 3.0 5.0 0.00 0.00 0.00 79 1012.3
20260903135536 83 200 3.0 7.0 0.00 0.00 0.00 78 1012.5
20260903135031 83 202 3.0 5.0 0.00 0.00 0.00 80 1012.4
20260903134531 83 225 2.0 6.0 0.00 0.00 0.00 80 1012.7
20260903134027 82 212 2.0 4.0 0.00 0.00 0.00 81 1012.6
20260903133524 82 206 4.0 4.0 0.00 0.00 0.00 82 1012.4
20260903133019 81 208 4.0 7.0 0.00 0.00 0.00 82 1012.5
20260903132514 81 208 4.0 6.0 0.00 0.00 0.00 83 1012.6
20260903132009 80 210 2.0 5.0 0.00 0.00 0.00 84 1012.6
20260903131504 80 201 2.0 4.0 0.00 0.00 0.00 84 1012.6
20260903131003 80 225 2.0 5.0 0.00 0.00 0.00 85 1012.6
20260903130458 79 201 3.0 5.0 0.00 0.00 0.00 85 1012.7
20260903125957 79 195 3.0 7.0 0.00 0.00 0.00 85 1012.9
20260903125456 79 240 3.0 6.0 0.00 0.00 0.00 85 1012.8
20260903124951 79 213 4.0 5.0 0.00 0.00 0.00 84 1012.7
20260903124446 79 201 3.0 4.0 0.00 0.00 0.00 84 1012.7
20260903123945 79 196 3.0 5.0 0.00 0.00 0.00 84 1013.0
20260903123440 79 209 1.0 4.0 0.00 0.00 0.00 84 1012.9
20260903122938 79 199 2.0 3.0 0.00 0.00 0.00 85 1012.6
20260903122433 79 202 2.0 3.0 0.00 0.00 0.00 85 1012.8
20260903121932 78 187 1.0 4.0 0.00 0.00 0.00 85 1012.7
20260903121427 78 192 0.0 4.0 0.00 0.00 0.00 86 1012.8
20260903120924 78 257 0.0 3.0 0.00 0.00 0.00 87 1012.8
20260903120422 77 192 1.0 2.0 0.00 0.00 0.00 87 1012.7
20260903115921 77 194 1.0 3.0 0.00 0.00 0.00 88 1012.8
20260903115420 77 195 2.0 3.0 0.00 0.00 0.00 88 1012.7
20260903114915 77 206 2.0 3.0 0.00 0.00 0.00 89 1012.4
20260903114410 76 198 1.0 2.0 0.00 0.00 0.00 89 1012.6
20260903113906 76 188 0.0 3.0 0.00 0.00 0.00 89 1012.5
20260903113402 76 216 0.0 3.0 0.00 0.00 0.00 90 1012.5
20260903112857 76 198 1.0 2.0 0.00 0.00 0.00 90 1012.7
20260903112353 76 206 0.0 3.0 0.00 0.00 0.00 90 1012.7
20260903111851 75 200 0.0 2.0 0.00 0.00 0.00 91 1012.4
20260903111346 76 206 0.0 2.0 0.00 0.00 0.00 90 1012.5
20260903110842 76 203 0.0 3.0 0.00 0.00 0.00 90 1012.6
20260903110338 76 209 0.0 2.0 0.00 0.00 0.00 90 1012.5
20260903105832 76 203 1.0 2.0 0.00 0.00 0.00 91 1012.2
20260903105327 76 203 1.0 2.0 0.00 0.00 0.00 90 1012.6
20260903104827 76 200 1.0 2.0 0.00 0.00 0.00 90 1012.5
20260903104322 76 209 1.0 3.0 0.00 0.00 0.00 90 1012.7
20260903103819 76 208 3.0 3.0 0.00 0.00 0.00 90 1012.4
20260903103314 76 200 0.0 3.0 0.00 0.00 0.00 90 1012.5
20260903102810 76 186 1.0 2.0 0.00 0.00 0.00 89 1012.6
20260903102305 76 208 2.0 2.0 0.00 0.00 0.00 89 1012.5
20260903101803 76 203 0.0 3.0 0.00 0.00 0.00 89 1012.5
20260903101259 76 195 0.0 3.0 0.00 0.00 0.00 89 1012.4
20260903100754 76 188 0.0 3.0 0.00 0.00 0.00 89 1012.4
20260903100248 76 195 1.0 2.0 0.00 0.00 0.00 89 1012.4
20260903095745 76 195 0.0 3.0 0.00 0.00 0.00 89 1012.5